Tracking 25410 objects as of 21-Jan-2022
HD Live streaming from Space Station
objects crossing your sky now

SOLRAD 11A

Track SOLRAD 11A now!
SOLRAD 11A is classified as:


NORAD ID: 8748
Int'l Code: 1976-023C
Perigee: 117,077.2 km
Apogee: 119,916.5 km
Inclination: 24.4 °
Period: 7,318.7 minutes
Semi major axis: 124867 km
RCS: Unknown
Launch date: March 15, 1976
Source: United States (US)
Launch site: AIR FORCE EASTERN TEST RANGE (AFETR)
aabbcc
Your satellite tracking list
Your tracking list is empty




NASA's NSSDC Master Catalog

Two Line Element Set (TLE):
1 08748U 76023C   22022.53874948 -.00000701  00000-0  00000-0 0  9990
2 08748  24.4234 333.8462 0113691 108.6058  10.0876  0.19675560  2302
Source of the keplerian elements: AFSPC